Location: Carrières
(48.9495°N, 2.0407°E)
Time: 03:03:15
(UTC+00:00)

Transit 2A - Pass Details

Date: 27 April 2024
Orbit: 594 x 957 km, 66.7° (Epoch: 19 May)

Event Time Altitude Azimuth Distance (km) Brightness Sun altitude
Rises 09:21:21 0° 316° (NW) 3,095 8.7 43.8°
Reaches altitude 10° 09:25:31 10° 350° (N) 2,273 8.2 44.3°
Maximum altitude 09:27:10 11° 9° (N) 2,217 8.3 44.5°
Drops below altitude 10° 09:28:52 10° 28° (NNE) 2,352 8.6 44.8°
Sets 09:33:26 0° 61° (ENE) 3,389 9.5 45.3°
